Content
SEND FEEDBACK

Daily
Averages
Monthly
Summary
United States of America

NEWFANE, VERMONT


Home > North America > United States > Vermont
Elevation: 686 feet     Latitude: 42 59N     Longitude: 072 39W

WEATHER
 
SELECT A DAY
Number of Records: 452,842;   Date Range: 1/1/95 - 10/22/14
 
SHARE

PRINT THIS DATA

[ ← Previous Day ]
WEATHER ALMANAC - MAY 13, 2014
[ Next Day → ]
[ °C ]   °F
Weather ElementAverageHighLow
Temperature52.4 °F62.6 °F (1:15 am)46.4 °F (11:55 pm)
Dewpoint38.2 °F46.4 °F (12:35 am)35.6 °F (5:55 am)
Humidity58.6 %71 % (10:55 pm)51 % (2:15 am)
Barometer30.26 in30.32 in (8:55 pm)30.09 in (12:35 am)
Wind Speed3.4 mph10.4 mph (1:15 am)
Wind Gust17.3 mph (2:35 am)
Weather ElementAverage
Visibility10 mi
Wind DirectionENE (78.3 °)

Weather ElementTotal
Precipitation---
Heating Degree Days10.5 (Base 65)
Growing Degree Days4.5 (Base 50)
Averaged from 59 records on May 13, 2014
WEATHER CONDITIONS BREAKOUT
WIND DIRECTION BREAKOUT
WEATHER BY HOUR - MAY 13, 2014
[ °C ]   °F
Local TimeTemperatureDewpointHumidityBarometerVisibilityWind DirectionWind SpeedGust SpeedPrecipitationEventsConditions
12:35 AM59.0 °F46.4 °F63 %30.09 in10.0 miCalmClear
12:55 AM57.2 °F44.6 °F63 %30.09 in10.0 miENE (60°)3.5 mphClear
1:15 AM62.6 °F44.6 °F52 %30.11 in10.0 miENE (60°)10.4 mphClear
1:35 AM60.8 °F42.8 °F52 %30.12 in10.0 miEast (90°)5.8 mphClear
2:15 AM57.2 °F39.2 °F51 %30.15 in10.0 miSSE (150°)3.5 mphClear
2:35 AM55.4 °F39.2 °F54 %30.16 in10.0 miENE (60°)4.6 mph17.3 mphClear
2:55 AM55.4 °F39.2 °F54 %30.16 in10.0 miENE (60°)4.6 mphClear
3:35 AM53.6 °F39.2 °F58 %30.18 in10.0 miNE (50°)8.1 mphScattered Clouds
3:55 AM53.6 °F39.2 °F58 %30.19 in10.0 miENE (60°)10.4 mph16.1 mphScattered Clouds
4:15 AM53.6 °F37.4 °F54 %30.19 in10.0 miNE (40°)5.8 mphMostly Cloudy
4:35 AM53.6 °F37.4 °F54 %30.21 in10.0 miENE (70°)5.8 mphMostly Cloudy
4:55 AM51.8 °F37.4 °F58 %30.21 in10.0 miNNE (30°)4.6 mphOvercast
5:15 AM53.6 °F37.4 °F54 %30.22 in10.0 miENE (70°)8.1 mphOvercast
5:35 AM51.8 °F37.4 °F58 %30.22 in10.0 miENE (70°)4.6 mphOvercast
5:55 AM51.8 °F35.6 °F54 %30.24 in10.0 miENE (60°)6.9 mphMostly Cloudy
6:15 AM51.8 °F35.6 °F54 %30.24 in10.0 miENE (60°)4.6 mphMostly Cloudy
6:35 AM51.8 °F35.6 °F54 %30.26 in10.0 miENE (70°)5.8 mphOvercast
6:55 AM51.8 °F35.6 °F54 %30.26 in10.0 miENE (70°)5.8 mphOvercast
7:15 AM51.8 °F35.6 °F54 %30.26 in10.0 miCalmOvercast
7:35 AM51.8 °F37.4 °F58 %30.26 in10.0 miSouth (180°)3.5 mphOvercast
7:55 AM51.8 °F37.4 °F58 %30.26 in10.0 miSouth (170°)3.5 mphMostly Cloudy
8:15 AM53.6 °F37.4 °F54 %30.27 in10.0 miCalmScattered Clouds
9:15 AM53.6 °F37.4 °F54 %30.28 in10.0 miCalmMostly Cloudy
9:35 AM53.6 °F37.4 °F54 %30.28 in10.0 miSouth (190°)3.5 mphMostly Cloudy
9:55 AM53.6 °F37.4 °F54 %30.28 in10.0 miSouth (180°)3.5 mphOvercast
10:15 AM53.6 °F35.6 °F51 %30.28 in10.0 miSouth (170°)6.9 mphOvercast
10:55 AM53.6 °F35.6 °F51 %30.31 in10.0 miCalmOvercast
12:35 PM53.6 °F35.6 °F51 %30.30 in10.0 miSouth (180°)3.5 mphOvercast
12:55 PM53.6 °F35.6 °F51 %30.30 in10.0 miCalmOvercast
1:35 PM53.6 °F37.4 °F54 %30.30 in10.0 miENE (70°)4.6 mphOvercast
1:55 PM53.6 °F37.4 °F54 %30.30 in10.0 miESE (110°)4.6 mphOvercast
2:15 PM51.8 °F39.2 °F62 %30.30 in10.0 miCalmOvercast
2:35 PM51.8 °F37.4 °F58 %30.31 in10.0 miCalmOvercast
2:55 PM51.8 °F37.4 °F58 %30.30 in10.0 miSSE (160°)4.6 mphOvercast
3:15 PM51.8 °F39.2 °F62 %30.31 in10.0 miESE (110°)3.5 mphOvercast
3:35 PM50.0 °F39.2 °F66 %30.31 in8.0 miNE (40°)3.5 mphOvercast
3:55 PM50.0 °F39.2 °F66 %30.30 in10.0 miCalmOvercast
4:15 PM51.8 °F37.4 °F58 %30.30 in10.0 miSSE (150°)3.5 mphOvercast
4:55 PM51.8 °F39.2 °F62 %30.30 in10.0 miENE (60°)3.5 mphOvercast
5:15 PM51.8 °F39.2 °F62 %30.30 in10.0 miCalmOvercast
5:35 PM51.8 °F39.2 °F62 %30.29 in10.0 miEast (90°)3.5 mphOvercast
5:55 PM51.8 °F39.2 °F62 %30.28 in10.0 miSouth (180°)4.6 mphOvercast
6:15 PM51.8 °F39.2 °F62 %30.29 in10.0 miCalmOvercast
6:35 PM51.8 °F39.2 °F62 %30.29 in10.0 miCalmOvercast
6:55 PM51.8 °F39.2 °F62 %30.29 in10.0 miSouth (190°)3.5 mphOvercast
7:15 PM51.8 °F39.2 °F62 %30.28 in10.0 miSouth (170°)4.6 mphOvercast
7:35 PM51.8 °F39.2 °F62 %30.30 in10.0 miCalmOvercast
7:55 PM51.8 °F37.4 °F58 %30.30 in10.0 miSouth (180°)4.6 mphOvercast
8:15 PM51.8 °F37.4 °F58 %30.29 in10.0 miSouth (170°)4.6 mphMostly Cloudy
8:35 PM48.2 °F37.4 °F66 %30.30 in10.0 miSouth (180°)4.6 mphClear
8:55 PM48.2 °F37.4 °F66 %30.32 in10.0 miCalmMostly Cloudy
9:15 PM50.0 °F37.4 °F62 %30.31 in10.0 miCalmOvercast
9:35 PM50.0 °F37.4 °F62 %30.32 in10.0 miSouth (190°)4.6 mphOvercast
9:55 PM50.0 °F37.4 °F62 %30.32 in10.0 miSouth (180°)4.6 mphOvercast
10:15 PM48.2 °F37.4 °F66 %30.31 in10.0 miSouth (190°)3.5 mphOvercast
10:55 PM48.2 °F39.2 °F71 %30.30 in10.0 miCalmOvercast
11:15 PM48.2 °F37.4 °F66 %30.30 in10.0 miCalmOvercast
11:35 PM48.2 °F37.4 °F66 %30.31 in10.0 miCalmMostly Cloudy
11:55 PM46.4 °F37.4 °F71 %30.32 in10.0 miCalmMostly Cloudy
Hourly data recorded from KEEN, located miles away from Newfane, Vermont







STORIES FROM OUR PARTNERS